Tracking 31027 objects as of 19-Jul-2025
HD Live streaming from Space Station
objects crossing your sky now

COSMOS 509

Track COSMOS 509 now!
10-day predictions
COSMOS 509 is classified as:


NORAD ID: 6122
Int'l Code: 1972-057F
Perigee: 1,480.6 km
Apogee: 1,504.7 km
Inclination: 74.0 °
Period: 115.7 minutes
Semi major axis: 7863 km
RCS: 0.7159 m2 (medium)
Launch date: July 20, 1972
Source: Commonwealth of Independent States (former USSR) (CIS)
Launch site: PLESETSK MISSILE AND SPACE COMPLEX (PKMTR)
Your satellite tracking list
EKRAN 2 DEB
Track 1 satellite(s)




NASA's NSSDC Master Catalog

Two Line Element Set (TLE):
1 06122U 72057F   25199.57337297 -.00000018  00000-0 -16154-4 0  9993
2 06122  74.0296 300.9192 0015272 114.9677 258.6046 12.44990843408475
Source of the keplerian elements: AFSPC